rajabola
judi togel
pokercc

Jackpot

Texas Poker Multi Jackpot System

Kini Telah hadir Jackpot SUPER ROYAL FLUSH

Kini Telah hadir Jackpot 2000 (khusus table VIP keatas).

Ikutilah global jackpot yang tersedia di system kami, dengan system jackpot terbaru dan pertama di indonesia, anda dapat membeli jackpot dengan harga 100 rupiah saja dan menangkan hadiahnya hingga puluhan juta rupiah.

Jackpot bukanlah suatu keharusan untuk dibeli, namun kami memberikan suatu fitur tambahan untuk member tercinta dari www.sevenpapa.com.

Terdapat tiga pilihan harga jackpot yang bisa anda beli yaitu :100,500,1000 dan 2000(khusus table VIP Keatas) rupiah.

Hadiah dari Multi jackpot system www.sevenpapa.com

  1. full house x 10 harga jackpot yang anda beli.
      (contoh:anda membeli 1000 maka:1000 X10 = 10.000)
  2. four of kind x 250 harga jackpot yang anda beli
      (contoh:anda membeli 1000 maka:1000 X250 = 250.000)
  3. Straight flush x 1200
      (contoh:anda membeli 1000 maka:1000 X1200 = 1.200.000)
  4. Royal flush x 10000 harga jackpot yang anda beli
      (contoh:anda membeli 1000 maka:1000 X10000 = 10.000.000)
  5. SUPER ROYAL FLUSH x 30000 harga jackpot yang anda beli
      (contoh:anda membeli 1000 maka:1000 X30000 = 30.000.000)

Kondisi kartu

  1. full house adalah kondisi kartu dimana kartu anda dan kartu tengah dengan total 7 kartu bisa mendapatkan nilai 5 kartu dengan kombinasi 1 tris(three of kind) dan 1 pair, contoh 3 kartu 10 dan 2 kartu 5
  2. Four of kind adalah kondisi kartu dimana kartu anda dan kartu tengah dengan total 7 kartu bisa mendapatkan nilai 5 kartu dengan kombinasi 4 kartu yang sama jumlah dan 1 kartu apapun juga contoh anda mendapatkan 4 buah kartu angka 3 dan 1 kartu apapun.
  3. Staright flush adalah kondisi kartu dimana kartu anda dan kartu tengah dengan total 7 kartu bisa mendapatkan nilai 5 kartu dengan kombinasi seri / staright dengan kembang yang sama contoh : urutan kartu dari angka 5, 6, 7, 8 , 9 10 dengan kembang yg sama misalnya as hati
  4. Royal flush adalah kondisi kartu dimana kartu anda dan kartu tengah dengan total 7 kartu bisa mendapatkan nilai 5 kartu dengan kombinasi seri / staright dengan kembang yang sama tetapi kartu tersebut haruslah dimulai dari 10. contoh 10, Queen, Jack, King dan aces dengan kembang yang sama
  5. Super Royal flush adalah kondisi kartu dimana Kedua kartu anda digabung dengan 3 kartu pertama meja haruslah royal flush. contoh kartu anda 10,Queen kembang sama dan 3 kartu pertama meja adalah Jack, King dan aces dengan kembang yang sama

Demikian adalah penjelasan dari Multi Jackpot www.sevenpapa.com terima kasih dan selamat bermain salam hoki dari kami

Texas Poker Jackpot Winner

TOP SUPER ROYAL FLUSH
No.TanggalNamaPriceWin
122/06 19:10Z2108Super Royal flush60,000,000
222/06 15:06M7H56LRCZZSuper Royal flush15,000,000
322/06 14:06ANDRAMANIHSuper Royal flush15,000,000
422/06 12:27JP_KERPOSuper Royal flush30,000,000
522/06 11:22ARBONG88Super Royal flush30,000,000
TOP ROYAL FLUSH
No.TanggalNamaPriceWin
122/06 20:09B37OKURoyal flush5,000,000
222/06 20:08TEDY8769Royal flush10,000,000
322/06 20:02KW4NF4TTRoyal flush5,000,000
422/06 19:50RONDAPOSRoyal flush5,000,000
522/06 19:47KHEIZANRoyal flush2,000,000
TOP STRAIGHT FLUSH
No.TanggalNamaPriceWin
122/06 20:20BANDITZ008Straight Flush1,200,000
222/06 20:19GELED3XStraight Flush240,000
322/06 20:19STRAIGHT50Straight Flush240,000
422/06 20:19UNA9IRVIKJStraight Flush600,000
522/06 20:19DWBT6877Straight Flush600,000
LATEST JACKPOT
No.TanggalNamaPriceWin
122/06 20:22SIMPEDES00Full House1,000
222/06 20:22IDK895768Full House500
322/06 20:22633LIWFull House10,000
422/06 20:22BE7C84DFFull House2,000
522/06 20:22AZKARA1224Full House10,000
622/06 20:22POLLL001Full House10,000
722/06 20:22SHARIKH4Full House2,000
822/06 20:22MINORYT1Full House1,000
922/06 20:22TEMPIXMASFull House1,000
1022/06 20:22IDO299Full House5,000
1122/06 20:22TEDY8769Full House10,000
1222/06 20:22NEREJEL09Full House1,000
1322/06 20:22DORKESFull House2,000
1422/06 20:22BUL4NP3RM4Full House5,000
1522/06 20:22UPVJHH03TLFull House2,000
1622/06 20:22NAPI990Full House2,000
1722/06 20:22D3TVK1WD38Full House5,000
1822/06 20:22MOTUNGFull House2,000
1922/06 20:22YAKUZA64Four Of A Kind500,000
2022/06 20:22MRSING23Full House2,000
2122/06 20:22D1L4N99Full House1,000
2222/06 20:22TOP898989Full House5,000
2322/06 20:22PUHABA12Full House2,000
2422/06 20:22TOGA90Full House1,000
2522/06 20:22UFLXUWS1I6Full House20,000
2622/06 20:22YOSITA89Full House2,000
2722/06 20:22B0BBY007Full House10,000
2822/06 20:22RAMOS222Full House5,000
2922/06 20:22BASTIAN230Full House2,000
3022/06 20:22MOS009Full House2,000
3122/06 20:22ZZIN88Full House2,000
3222/06 20:22IYY31NS619Four Of A Kind50,000
3322/06 20:22MOZZOFull House10,000
3422/06 20:22JONTOR8989Full House2,000
3522/06 20:22DEWAYULIFull House2,000
3622/06 20:22LUSTIANE12Full House5,000
3722/06 20:22DWBTKEJU27Full House2,000
3822/06 20:22THA05Full House2,000
3922/06 20:22LARAS31Full House2,000
4022/06 20:22TUKANGBASOFull House2,000
4122/06 20:22B51BCB0FFull House5,000
4222/06 20:22POW6BDFI5DFull House5,000
4322/06 20:22IZ1975Full House2,000
4422/06 20:22YKB881803Full House2,000
4522/06 20:22AISITERU65Full House5,000
4622/06 20:22N4BYL4Full House2,000
4722/06 20:21PEGASUS798Full House10,000
4822/06 20:21UF4L007Full House5,000
4922/06 20:21KAAK123Full House5,000
5022/06 20:21T03N931892Full House1,000

Domino Multi Jackpot System

Ikutilah global jackpot yang tersedia di system kami, dengan system jackpot terbaru dan pertama di indonesia, anda dapat membeli jackpot dengan harga 100 rupiah saja dan menangkan hadiahnya hingga puluhan juta rupiah.

Jackpot bukanlah suatu keharusan untuk dibeli, namun kami memberikan suatu fitur tambahan untuk member tercinta dari www.sevenpapa.com.

Terdapat tiga pilihan harga jackpot yang bisa anda beli yaitu :100,500 dan 1000 rupiah.

Hadiah dari Multi jackpot system www.sevenpapa.com

  1. Murni Kecil x 50 harga jackpot yang anda beli.
      (contoh:anda membeli 1000 maka:1000 X 50 = 50.000)
  2. Murni Besar x 50 harga jackpot yang anda beli
      (contoh:anda membeli 1000 maka:1000 X 50 = 50.000)
  3. BALAK x 100 harga jackpot yang anda beli
      (contoh:anda membeli 1000 maka:1000 X 100 = 100.000)
  4. ENAM DEWA x 6666 harga jackpot yang anda beli
      (contoh:anda membeli 1000 maka:1000 X 6666 = 6.666.000)

Demikian adalah penjelasan dari Multi Jackpot www.sevenpapa.com terima kasih dan selamat bermain salam hoki dari kami

Domino Jackpot Winner

TOP ENAM DEWA
No.TanggalNamaPriceWin
122/06 20:13KATAK_88murni enam3,333,000
222/06 19:06AZKHA883murni enam6,666,000
322/06 18:49C8D56233murni enam6,666,000
422/06 17:36OMJIN01murni enam3,333,000
522/06 17:28AMAL886murni enam3,333,000
TOP BALAK
No.TanggalNamaPriceWin
122/06 20:22B9012953balak100,000
222/06 20:18P7HNJ35E0Jbalak100,000
322/06 20:15DENISRbalak100,000
422/06 20:11Q6666Qbalak100,000
522/06 20:10TULANGPAGIbalak100,000
LATEST JACKPOT
No.TanggalNamaPriceWin
122/06 20:22B9012953balak100,000
222/06 20:21ARB89661lucky992,500
322/06 20:21AJEPTHEAmurni besar50,000
422/06 20:21WAKEMBOYmurni kecil5,000
522/06 20:21MANJUR66murni besar50,000
622/06 20:20SANTY36murni kecil5,000
722/06 20:20P4UL18murni besar50,000
822/06 20:20NYARETETmurni kecil50,000
922/06 20:19VIVIGOGOmurni kecil50,000
1022/06 20:19OYIKKK28murni besar50,000
1122/06 20:18P7HNJ35E0Jbalak100,000
1222/06 20:18CILUPBA89murni besar50,000
1322/06 20:18SNW4XPMWZDmurni kecil25,000
1422/06 20:17QIDAM06murni kecil50,000
1522/06 20:17BLONET66murni kecil50,000
1622/06 20:16CUMPLU88murni besar25,000
1722/06 20:15LOTS888murni besar25,000
1822/06 20:15DENISRbalak100,000
1922/06 20:15RWGOKEmurni kecil25,000
2022/06 20:15NAPITU60murni besar5,000
2122/06 20:14AMA0002murni besar50,000
2222/06 20:14UCHIHATACImurni besar25,000
2322/06 20:14WAHISRImurni besar25,000
2422/06 20:14BONZZ007murni besar50,000
2522/06 20:13KATAK_88murni enam3,333,000
2622/06 20:13YOPAN99murni kecil25,000
2722/06 20:12DEARLYMO29murni besar25,000
2822/06 20:12BXU4HETHYImurni besar5,000
2922/06 20:11NUVO9090murni kecil5,000
3022/06 20:11Q6666Qbalak100,000
3122/06 20:11MRNASGORmurni besar50,000
3222/06 20:10ASAM6murni kecil25,000
3322/06 20:10TULANGPAGIbalak100,000
3422/06 20:10SNI40168murni kecil50,000
3522/06 20:09PAHALA81murni kecil5,000
3622/06 20:09KISRUN9murni besar50,000
3722/06 20:09ZAKI678murni kecil50,000
3822/06 20:08SU081289murni kecil50,000
3922/06 20:08PR4K0S0murni besar50,000
4022/06 20:08ZOM0QFH88Rmurni kecil5,000
4122/06 20:08KECEL11murni kecil50,000
4222/06 20:08Q6666Qmurni besar50,000
4322/06 20:07J4YAN14Nmurni kecil5,000
4422/06 20:07BOOM66murni besar50,000
4522/06 20:07STIRJUGAlucky99200,000
4622/06 20:07ANGGUN1009murni besar50,000
4722/06 20:07ENTONG_IWlucky9910,000
4822/06 20:06MANJUR66murni besar50,000
4922/06 20:05CILUPBA89murni kecil50,000
5022/06 20:05DARMAN23murni kecil5,000

Ceme Multi Jackpot System

Jackpot dilihat dari gabungan kartu pemain dengan kartu bandar. Bandar harus membeli jackpot sebanyak jumlah player yang sedang duduk. Sebagai contoh bila terdapat 3 pemain duduk bermain, dan bandar memutuskan untuk membeli jackpot Rp 1.000, maka pada periode tersebut bandar akan membeli jackpot sebanyak 3xRp1.000 = Rp3.000.

Jackpot bukanlah suatu keharusan untuk dibeli, namun kami memberikan suatu fitur tambahan untuk member tercinta dari www.sevenpapa.com.

Terdapat tiga pilihan harga jackpot yang bisa anda beli yaitu :100,500 dan 1000 rupiah.

Hadiah dari Multi jackpot system www.sevenpapa.com

  1. Murni Kecil x 50 harga jackpot yang anda beli.
      (contoh:anda membeli 1000 maka:1000 X 50 = 50.000)
  2. Murni Besar x 50 harga jackpot yang anda beli
      (contoh:anda membeli 1000 maka:1000 X 50 = 50.000)
  3. BALAK x 200 harga jackpot yang anda beli
      (contoh:anda membeli 1000 maka:1000 X 200 = 200.000)
  4. ENAM DEWA x 6666 harga jackpot yang anda beli
      (contoh:anda membeli 1000 maka:1000 X 6666 = 6.666.000)

Demikian adalah penjelasan dari Multi Jackpot www.sevenpapa.com terima kasih dan selamat bermain salam hoki dari kami

Ceme Jackpot Winner

TOP ENAM DEWA
No.TanggalNamaPriceWin
122/06 20:11CIDENZ89murni enam6,666,000
222/06 19:50SRNCINK88murni enam666,600
322/06 19:50JAYA_MAJUUmurni enam3,333,000
422/06 19:44DJAP92murni enam6,666,000
522/06 19:36LIS39murni enam6,666,000
TOP BALAK
No.TanggalNamaPriceWin
122/06 20:22C3NSSSbalak200,000
222/06 20:22SANTI_IISbalak200,000
322/06 20:22RAMSES51balak200,000
422/06 20:21W4N9SYNbalak100,000
522/06 20:21RICKIEAJBbalak200,000
LATEST JACKPOT
No.TanggalNamaPriceWin
122/06 20:22SUTOBOY293murni kecil50,000
222/06 20:22C3NSSSbalak200,000
322/06 20:22SANTI_IISbalak200,000
422/06 20:22RAMSES51balak200,000
522/06 20:22BIHOW234murni kecil25,000
622/06 20:22KLX444murni kecil50,000
722/06 20:21HIDAYA89murni kecil50,000
822/06 20:21VIVIMUmurni kecil50,000
922/06 20:21W4N9SYNbalak100,000
1022/06 20:21RICKIEAJBbalak200,000
1122/06 20:21V6666J2Ymurni kecil50,000
1222/06 20:21D4C6574Amurni kecil50,000
1322/06 20:21SMKWE33Dmurni kecil5,000
1422/06 20:21OJONESUYAmurni kecil50,000
1522/06 20:21SAHARANAmurni kecil50,000
1622/06 20:21TAPAIYmurni kecil50,000
1722/06 20:21MENANGPUNYmurni kecil5,000
1822/06 20:21PUNKMUZKmurni kecil25,000
1922/06 20:21MARDON99murni kecil50,000
2022/06 20:21HP_Q01balak100,000
2122/06 20:20HHBB82balak100,000
2222/06 20:20DAMSEX96balak20,000
2322/06 20:20KEWSUW54murni kecil25,000
2422/06 20:20MEIMEIWINmurni kecil5,000
2522/06 20:20IND9228murni kecil50,000
2622/06 20:20ZILONG1990murni besar50,000
2722/06 20:20MADE217murni besar50,000
2822/06 20:20TUNG12murni kecil50,000
2922/06 20:20RAMSES51murni besar50,000
3022/06 20:20ASRINA17balak200,000
3122/06 20:20JUNO33murni kecil50,000
3222/06 20:20FERRYQIU99murni kecil50,000
3322/06 20:20TSUIbalak200,000
3422/06 20:20ASTIAMORmurni kecil50,000
3522/06 20:20SNDYTA10balak100,000
3622/06 20:20S3HUYH1L6Cbalak100,000
3722/06 20:20MEIMEIWINmurni besar5,000
3822/06 20:20IND9228murni besar25,000
3922/06 20:20IMAMSSSSSSmurni besar5,000
4022/06 20:20ABC8887murni besar50,000
4122/06 20:20IMAMSSSSSSmurni besar5,000
4222/06 20:20DAVITSSmurni besar25,000
4322/06 20:20ANDI3114murni besar5,000
4422/06 20:20YULFIAH110balak200,000
4522/06 20:20CM66balak200,000
4622/06 20:19AIRLIMAUbalak200,000
4722/06 20:19RIDIA03balak20,000
4822/06 20:19BANGRAHMADmurni kecil50,000
4922/06 20:19ABUBAKAR33murni kecil5,000
5022/06 20:19BABANGYOGSmurni kecil5,000